Retour au catalogue

STARLINK-4373

ActifCommunicationsSSO
NORAD 53219·PAYLOAD·🇺🇸 United States

Lancé Jul 22, 2022 depuis Vandenberg Space Force Base

Loading…

Prochains Passages (prochaines 24 heures)

TLE

FraisSource: CelesTrak SupGP

Époque: Sep 15, 2026, 02:18 UTC

1 53219C 22084AG  26258.09631944  .00060624  00000+0  18817-2 0  2587
2 53219  97.2836 313.8212 0001613  87.0612 142.1029 15.33411569    10

Suivez STARLINK-4373 en temps réel avec AllMySat

Download on the App Store